Location: Betz
(49.1556°N, 2.9558°E)
Time: 05:47:43
(UTC+00:00)

Okean 1-7 Rocket - Pass Details

Date: 18 September 2019
Orbit: 617 x 649 km, 82.5° (Epoch: 23 October)

Event Time Altitude Azimuth Distance (km) Brightness Sun altitude
Rises 19:34:49 0° 350° (N) 2,913 7.5 -16.6°
Reaches altitude 10° 19:37:03 10° 351° (N) 2,006 6.6 -16.9°
Maximum altitude 19:41:30 88° 77° (ENE) 635 3.5 -17.6°
Enters shadow 19:44:40 19° 171° (S) 1,496 5.2 -18.0°
